Notices

What's New in latest Release from April 7th, 2021:

- Updated Glossary, including Speed of Maximum Gust, and Total Hourly Precipitation

- Updated national and regional climate services offices contacts and prices information

- Addition of station inventory lists for 1981-2010, 1971-2000, and 1961-1990 Normals.

If you haven't already, please take our survey and provide feedback about our website: https://eccc.sondage-survey.ca/f/LanguageSelection.aspx?s=442ca660-fcf1-47c0-95a9-59707d6fd709

Hourly Data Report for July 06, 2018

TORONTO CITY
ONTARIO
Current Station Operator: ECCC - MSC

43°40'00.000" N
79°24'00.000" W
112.50 m
6158355
71508
XTO

Download Data

Hourly Data (July 2018)
Hourly Data Report for July 6, 2018
TIME
LST
Temp Definition
°C
Dew Point Definition
°C
Rel Hum Definition
%
Precip. Amount Definition
mm

Wind Dir Definition
10's deg

Wind Spd Definition
km/h
Visibility Definition
km
Stn Press Definition
kPa
Hmdx Definition


Wind Chill Definition


Weather Definition


00:00 22.0 16.5 71 0.0 LegendMM LegendMM   100.43 27   LegendNANA
01:00 21.8 11.0 50 0.0 LegendMM LegendMM   100.46     LegendNANA
02:00 20.2 10.9 55 0.0 LegendMM LegendMM   100.51     LegendNANA
03:00 19.2 11.3 60 0.0 LegendMM LegendMM   100.55     LegendNANA
04:00 18.2 11.5 65 0.0 LegendMM LegendMM   100.61     LegendNANA
05:00 18.5 11.2 62 0.0 LegendMM LegendMM   100.66     LegendNANA
06:00 18.8 11.5 63 0.0 LegendMM LegendMM   100.75     LegendNANA
07:00 20.0 10.7 55 0.0 LegendMM LegendMM   100.84     LegendNANA
08:00 20.8 9.0 47 0.0 LegendMM LegendMM   100.93     LegendNANA
09:00 21.8 8.3 42 0.0 LegendMM LegendMM   100.97     LegendNANA
10:00 22.2 8.0 40 0.0 LegendMM LegendMM   101.01     LegendNANA
11:00 22.7 7.1 37 0.0 LegendMM LegendMM   101.09     LegendNANA
12:00 23.3 6.9 35 0.0 LegendMM LegendMM   101.14     LegendNANA
13:00 23.6 8.5 38 0.0 LegendMM LegendMM   101.13     LegendNANA
14:00 23.3 8.2 38 0.0 LegendMM LegendMM   101.12     LegendNANA
15:00 23.4 7.1 35 0.0 LegendMM LegendMM   101.08     LegendNANA
16:00 23.3 7.8 37 0.0 LegendMM LegendMM   101.07     LegendNANA
17:00 22.6 7.9 39 0.0 LegendMM LegendMM   101.08     LegendNANA
18:00 22.5 7.2 37 0.0 LegendMM LegendMM   101.08     LegendNANA
19:00 21.3 5.0 34 0.0 LegendMM LegendMM   101.13     LegendNANA
20:00 20.4 4.2 34 0.0 LegendMM LegendMM   101.19     LegendNANA
21:00 19.9 3.6 34 0.0 LegendMM LegendMM   101.28     LegendNANA
22:00 19.2 4.1 37 0.0 LegendMM LegendMM   101.32     LegendNANA
23:00 18.2 5.0 42 0.0 LegendMM LegendMM   101.36     LegendNANA

Notes on Data Quality.

Legend

  • E = Estimated
  • M = Missing
  • NA = Not Available*
  • [empty] = Indicates an unobserved value
Date modified: